Tanner, AL

11:08 PM CST on February 23, 2017 (GMT -0600)
Pryor Regional

Weather History for KDCU - March, 2013

Change the Weather History Date:

Friday, March 1, 2013

  Actual Average Record
Temperature  
Mean Temperature 36 °F -  
Max Temperature 39 °F 58 °F 80 °F (1997)
Min Temperature 33 °F 36 °F 21 °F (1960)
Degree Days  
Heating Degree Days 29    
Moisture  
Dew Point 30 °F    
Average Humidity 78    
Maximum Humidity 93    
Minimum Humidity 70    
Precipitation  
Precipitation 0.00 in - - ()
Sea Level Pressure  
Sea Level Pressure 30.07 in    
Wind  
Wind Speed 7 mph (WNW)    
Max Wind Speed 13 mph    
Max Gust Speed 24 mph    
Visibility 9 miles    
Events Snow    
Averages and records for this station are not official NWS values.
T = Trace of Precipitation, MM = Missing Value Source: NWS Daily Summary

Daily Weather History Graph

Daily Weather History Graph

Search for Another Location

Airport or City:

Trip Planner

Search our weather history database for the weather conditions in past years. The results will help you decide how hot, cold, wet, or windy it might be!

Date:

Astronomy

Mar. 01, 2013 Rise Set
Actual Time 6:16 AM CST 5:43 PM CST
Civil Twilight 5:51 AM CST 6:09 PM CST
Nautical Twilight 5:22 AM CST 6:38 PM CST
Astronomical Twilight 4:52 AM CST 7:07 PM CST
Moon 10:03 PM CST (3/1) 8:15 AM CST (3/1)
Length of Visible Light 12h 17m
Length of Day
11h 27m
Waning Gibbous, 83% of the Moon is Illuminated
Mar 1
Waning Gibbous
Mar 4
Last Quarter
Mar 11
New
Mar 19
First Quarter
Mar 27
Full

Hourly Weather History & Observations

Time (CST) Temp. Windchill Dew Point Humidity Pressure Visibility Wind Dir Wind Speed Gust Speed Precip Events Conditions
12:53 AM 36.0 °F 32.1 °F 28.0 °F 73% 30.06 in 10.0 mi NW 4.6 mph - N/A   Overcast
2:53 AM 36.0 °F 32.1 °F 28.0 °F 73% 30.05 in 10.0 mi NW 4.6 mph - N/A   Overcast
3:53 AM 36.0 °F 33.3 °F 28.9 °F 76% 30.05 in 10.0 mi WNW 3.5 mph - N/A   Overcast
4:53 AM 36.0 °F 30.3 °F 28.9 °F 76% 30.05 in 10.0 mi WNW 6.9 mph - N/A   Overcast
5:53 AM 36.0 °F 32.1 °F 28.9 °F 76% 30.06 in 10.0 mi NW 4.6 mph - N/A   Overcast
6:53 AM 36.0 °F 33.3 °F 30.0 °F 79% 30.06 in 9.0 mi WNW 3.5 mph - N/A   Overcast
7:53 AM 36.0 °F 32.1 °F 28.9 °F 76% 30.08 in 10.0 mi WNW 4.6 mph - N/A   Overcast
9:53 AM 37.9 °F 32.7 °F 28.9 °F 70% 30.08 in 10.0 mi WNW 6.9 mph - N/A   Overcast
10:53 AM 39.0 °F 32.8 °F 30.0 °F 70% 30.08 in 10.0 mi West 9.2 mph - N/A   Overcast
11:53 AM 39.0 °F 32.8 °F 30.0 °F 70% 30.08 in 10.0 mi West 9.2 mph - N/A   Overcast
12:53 PM 39.0 °F 32.8 °F 30.0 °F 70% 30.06 in 10.0 mi West 9.2 mph - N/A   Overcast
1:28 PM 37.4 °F 29.3 °F 30.2 °F 75% 30.04 in 10.0 mi West 12.7 mph - N/A   Overcast
1:53 PM 37.9 °F 30.9 °F 30.0 °F 73% 30.05 in 10.0 mi WNW 10.4 mph - N/A   Overcast
3:38 PM 37.4 °F 31.4 °F 28.4 °F 70% 30.04 in 10.0 mi NW 8.1 mph - N/A   Overcast
3:53 PM 37.9 °F 30.9 °F 28.9 °F 70% 30.05 in 10.0 mi NW 10.4 mph - N/A   Overcast
4:05 PM 37.4 °F 29.3 °F 28.4 °F 70% 30.04 in 10.0 mi NW 12.7 mph - N/A   Overcast
4:53 PM 37.0 °F 32.4 °F 28.9 °F 73% 30.06 in 10.0 mi NW 5.8 mph - N/A   Overcast
5:53 PM 36.0 °F 28.5 °F 30.0 °F 79% 30.07 in 10.0 mi WNW 10.4 mph - N/A   Overcast
6:53 PM 36.0 °F 29.0 °F 30.0 °F 79% 30.09 in 7.0 mi NW 9.2 mph - 0.00 in Snow Light Snow
7:33 PM 33.8 °F 25.3 °F 30.2 °F 87% 30.08 in 2.0 mi WNW 11.5 mph 24.2 mph 0.00 in Snow Light Snow
7:38 PM 33.8 °F 24.8 °F 30.2 °F 87% 30.09 in 3.0 mi WNW 12.7 mph - 0.00 in Snow Light Snow
8:45 PM 33.8 °F 29.6 °F 32.0 °F 93% 30.10 in 7.0 mi WNW 4.6 mph - 0.00 in Snow Light Snow
8:53 PM 34.0 °F 27.2 °F 32.0 °F 92% 30.11 in 7.0 mi WNW 8.1 mph - 0.00 in   Overcast
9:43 PM 33.8 °F 26.4 °F 30.2 °F 87% 30.09 in 10.0 mi NW 9.2 mph - N/A   Overcast
9:53 PM 34.0 °F 26.0 °F 30.9 °F 89% 30.10 in 8.0 mi NW 10.4 mph - N/A   Overcast
10:10 PM 33.8 °F 26.4 °F 30.2 °F 87% 30.09 in 7.0 mi NW 9.2 mph - 0.00 in Snow Light Snow
10:53 PM 34.0 °F 26.6 °F 30.9 °F 89% 30.09 in 8.0 mi WNW 9.2 mph - 0.00 in Snow Light Snow
11:53 PM 33.1 °F 24.9 °F 30.0 °F 89% 30.09 in 4.0 mi WNW 10.4 mph - 0.00 in Snow Light Snow